Location: Riverside
(39.1734°N, 77.8561°W)
Time: 22:19:40
(UTC+00:00)

NANOSAT C BR1 - Visible Passes

Search period start: 19 May 2019 00:00
Search period end: 29 May 2019 00:00
Orbit: 589 x 607 km, 97.9° (Epoch: 18 May)

Date Brightness Start Highest point End Pass type
(mag) Time Alt. Az. Time Alt. Az. Time Alt. Az.
19 May ? 05:40:32 10° NNE 05:42:49 31° NNE 05:42:49 31° NNE visible
19 May ? 07:19:07 10° NW 07:19:32 10° WNW 07:19:32 10° WNW visible
20 May ? 05:51:07 10° NNE 05:53:36 35° NNE 05:53:36 35° NNE visible
21 May ? 06:01:45 10° N 06:04:23 37° N 06:04:23 37° N visible
22 May ? 06:12:26 10° N 06:15:10 36° NNW 06:15:10 36° NNW visible
23 May ? 04:48:39 10° NE 04:49:13 12° ENE 04:49:13 12° ENE visible
23 May ? 06:23:10 10° N 06:25:56 32° NW 06:25:56 32° NW visible
24 May ? 04:58:45 10° NE 05:00:00 16° ENE 05:00:00 16° ENE visible
24 May ? 06:33:58 10° N 06:36:43 27° NW 06:36:43 27° NW visible
25 May ? 05:09:01 10° NE 05:10:46 20° ENE 05:10:46 20° ENE visible
25 May ? 06:44:50 10° NNW 06:47:29 22° NW 06:47:29 22° NW visible
26 May ? 05:19:23 10° NNE 05:21:32 25° NE 05:21:32 25° NE visible
26 May ? 06:55:49 10° NNW 06:58:15 18° WNW 06:58:15 18° WNW visible
27 May ? 05:29:50 10° NNE 05:32:18 31° NE 05:32:18 31° NE visible
27 May ? 07:07:00 10° NW 07:09:01 14° WNW 07:09:01 14° WNW visible
28 May ? 05:40:21 10° NNE 05:43:04 38° NNE 05:43:04 38° NNE visible
28 May ? 07:18:44 10° NW 07:19:36 11° WNW 07:19:47 11° WNW visible
